Biloxi, MS

5:52 AM CST on December 13, 2017 (GMT -0600)
Keesler Air Force Base

Weather History for KBIX - July, 2012

Change the Weather History Date:

Tuesday, July 17, 2012

  Actual Average Record
Temperature  
Mean Temperature 83 °F -  
Max Temperature 93 °F 90 °F 97 °F (1951)
Min Temperature 73 °F 73 °F 66 °F (1967)
Cooling Degree Days 18    
Growing Degree Days 33 (Base 50)    
Moisture  
Dew Point 70 °F    
Average Humidity 73    
Maximum Humidity 85    
Minimum Humidity 46    
Precipitation  
Precipitation 0.54 in - - ()
Sea Level Pressure  
Sea Level Pressure 30.03 in    
Wind  
Wind Speed 5 mph (SSW)    
Max Wind Speed 22 mph    
Max Gust Speed 36 mph    
Visibility 7 miles    
Events Rain , Thunderstorm    
Averages and records for this station are not official NWS values.
T = Trace of Precipitation, MM = Missing Value Source: NWS Daily Summary

Daily Weather History Graph

Daily Weather History Graph

Search for Another Location

Airport or City:

Trip Planner

Search our weather history database for the weather conditions in past years. The results will help you decide how hot, cold, wet, or windy it might be!

Date:

Astronomy

Jul. 17, 2012 Rise Set
Actual Time 6:05 AM CDT 7:58 PM CDT
Civil Twilight 5:38 AM CDT 8:25 PM CDT
Nautical Twilight 5:05 AM CDT 8:57 PM CDT
Astronomical Twilight 4:31 AM CDT 9:31 PM CDT
Moon 4:41 AM CDT (7/17) 6:49 PM CDT (7/17)
Length of Visible Light 14h 46m
Length of Day
13h 52m
Waning Crescent, 2% of the Moon is Illuminated
Jul 17
Waning Crescent
Jul 18
New
Jul 26
First Quarter
Aug 1
Full
Aug 9
Last Quarter

Hourly Weather History & Observations

Time (CDT) Temp. Heat Index Dew Point Humidity Pressure Visibility Wind Dir Wind Speed Gust Speed Precip Events Conditions
12:55 AM 81.0 °F 85.1 °F 71.6 °F 73% 30.01 in 10.0 mi Calm Calm - N/A   Clear
1:55 AM 79.5 °F - 72.0 °F 78% 30.01 in 10.0 mi Calm Calm - N/A   Clear
2:55 AM 79.9 °F - 72.9 °F 79% 30.00 in 10.0 mi Calm Calm - N/A   Clear
3:55 AM 79.0 °F - 72.9 °F 81% 29.99 in 10.0 mi Variable 3.5 mph - N/A   Clear
4:55 AM 77.9 °F - 72.5 °F 83% 30.00 in 10.0 mi Calm Calm - N/A   Clear
5:55 AM 77.4 °F - 72.1 °F 84% 29.99 in 10.0 mi Calm Calm - N/A   Clear
6:55 AM 78.6 °F - 72.7 °F 82% 30.01 in 10.0 mi Variable 3.5 mph - N/A   Clear
7:55 AM 82.2 °F 88.0 °F 73.4 °F 75% 30.02 in 10.0 mi NW 5.8 mph - N/A   Clear
8:55 AM 85.3 °F 92.2 °F 73.4 °F 67% 30.02 in 10.0 mi North 5.8 mph - N/A   Clear
9:55 AM 88.0 °F 94.2 °F 71.4 °F 58% 30.03 in 10.0 mi North 5.8 mph - N/A   Clear
10:55 AM 89.8 °F 95.1 °F 70.0 °F 52% 30.04 in 10.0 mi North 5.8 mph - N/A   Clear
11:55 AM 92.1 °F 97.2 °F 69.3 °F 47% 30.04 in 10.0 mi ESE 3.5 mph - N/A   Clear
12:55 PM 91.4 °F 95.8 °F 68.7 °F 47% 30.02 in 10.0 mi SSW 4.6 mph - N/A   Scattered Clouds
1:55 PM 93.6 °F 99.5 °F 69.8 °F 46% 29.99 in 10.0 mi South 8.1 mph - N/A   Clear
2:55 PM 92.7 °F 98.3 °F 70.0 °F 47% 29.96 in 10.0 mi SW 9.2 mph - N/A   Clear
3:55 PM 91.2 °F 98.5 °F 71.8 °F 53% 29.95 in 10.0 mi SW 13.8 mph - N/A   Clear
4:55 PM 90.5 °F 96.5 °F 70.5 °F 52% 29.94 in 10.0 mi SW 13.8 mph - N/A   Clear
5:55 PM 89.4 °F 96.8 °F 72.1 °F 57% 29.94 in 10.0 mi SSW 12.7 mph - N/A   Clear
6:55 PM 87.8 °F 94.7 °F 72.5 °F 60% 29.93 in 10.0 mi SW 15.0 mph - N/A   Clear
7:55 PM 85.8 °F 93.0 °F 73.2 °F 66% 29.96 in 10.0 mi SW 10.4 mph - N/A   Scattered Clouds
8:55 PM 85.8 °F 93.0 °F 73.4 °F 66% 29.99 in 10.0 mi SW 6.9 mph - N/A Thunderstorm Thunderstorm
9:08 PM 86.0 °F 93.4 °F 73.4 °F 66% 30.00 in 10.0 mi Variable 3.5 mph - N/A Rain , Thunderstorm Light Thunderstorms and Rain
9:54 PM 75.2 °F - 69.8 °F 83% 30.04 in 10.0 mi ESE 20.7 mph 34.5 mph N/A Thunderstorm Thunderstorm
9:55 PM 74.7 °F - 68.7 °F 82% 30.04 in 10.0 mi ESE 21.9 mph 34.5 mph 0.04 in Thunderstorm Thunderstorm
10:06 PM 75.2 °F - 68.0 °F 78% 30.10 in 10.0 mi NNE 10.4 mph 24.2 mph N/A Rain , Thunderstorm Light Thunderstorms and Rain
10:17 PM 77.0 °F - 68.0 °F 74% 30.12 in 3.0 mi NE 11.5 mph 35.7 mph N/A Rain , Thunderstorm Thunderstorms and Rain
10:18 PM 77.0 °F - 68.0 °F 74% 30.12 in 2.0 mi ENE 5.8 mph 35.7 mph N/A Rain , Thunderstorm Thunderstorms and Rain
10:19 PM 75.2 °F - 68.0 °F 78% 30.11 in 1.8 mi East 4.6 mph 34.5 mph N/A Rain , Thunderstorm Heavy Thunderstorms and Rain
10:20 PM 75.2 °F - 68.0 °F 78% 30.11 in 1.5 mi ESE 3.5 mph 34.5 mph N/A Rain , Thunderstorm Heavy Thunderstorms and Rain
10:21 PM 75.2 °F - 68.0 °F 78% 30.11 in 1.2 mi Calm Calm - N/A Rain , Thunderstorm Heavy Thunderstorms and Rain
10:22 PM 75.2 °F - 68.0 °F 78% 30.10 in 1.0 mi Calm Calm - N/A Rain , Thunderstorm Heavy Thunderstorms and Rain
10:23 PM 75.2 °F - 68.0 °F 78% 30.10 in 0.8 mi SSW 4.6 mph 19.6 mph N/A Rain , Thunderstorm Heavy Thunderstorms and Rain
10:25 PM 75.2 °F - 68.0 °F 78% 30.09 in 0.8 mi SW 5.8 mph 19.6 mph N/A Rain , Thunderstorm Heavy Thunderstorms and Rain
10:28 PM 73.4 °F - 68.0 °F 83% 30.08 in 0.8 mi SW 8.1 mph - N/A Rain , Thunderstorm Heavy Thunderstorms and Rain
10:29 PM 73.4 °F - 68.0 °F 83% 30.07 in 1.0 mi SW 8.1 mph - N/A Rain , Thunderstorm Heavy Thunderstorms and Rain
10:30 PM 73.4 °F - 68.0 °F 83% 30.06 in 1.0 mi SW 9.2 mph - N/A Rain , Thunderstorm Heavy Thunderstorms and Rain
10:31 PM 73.4 °F - 68.0 °F 83% 30.06 in 1.2 mi SW 10.4 mph - N/A Rain , Thunderstorm Heavy Thunderstorms and Rain
10:32 PM 73.4 °F - 68.0 °F 83% 30.05 in 1.5 mi SW 12.7 mph - N/A Rain , Thunderstorm Heavy Thunderstorms and Rain
10:34 PM 73.4 °F - 68.0 °F 83% 30.04 in 1.8 mi SW 12.7 mph - N/A Rain , Thunderstorm Heavy Thunderstorms and Rain
10:35 PM 73.4 °F - 68.0 °F 83% 30.04 in 2.0 mi SSW 10.4 mph - N/A Rain , Thunderstorm Heavy Thunderstorms and Rain
10:37 PM 73.4 °F - 68.0 °F 83% 30.04 in 2.5 mi SSW 11.5 mph - N/A Rain , Thunderstorm Heavy Thunderstorms and Rain
10:39 PM 73.4 °F - 68.0 °F 83% 30.03 in 3.0 mi SSW 11.5 mph - N/A Rain , Thunderstorm Heavy Thunderstorms and Rain
10:55 PM 73.4 °F - 68.2 °F 84% 30.01 in 10.0 mi SSW 6.9 mph - 0.49 in Rain , Thunderstorm Light Thunderstorms and Rain
11:01 PM 73.4 °F - 68.0 °F 83% 30.00 in 10.0 mi SW 6.9 mph - N/A Thunderstorm Mostly Cloudy
11:55 PM 75.0 °F - 70.2 °F 85% 30.01 in 10.0 mi East 4.6 mph - 0.01 in Thunderstorm Partly Cloudy